Weather History for KLBL - January, 2014

Change the Weather History Date:

Friday, January 24, 2014

  Actual Average Record
Temperature  
Mean Temperature 29 °F -  
Max Temperature 55 °F 51 °F 72 °F (1950)
Min Temperature 3 °F 23 °F 0 °F (1940)
Degree Days  
Heating Degree Days 36    
Moisture  
Dew Point 10 °F    
Average Humidity 53    
Maximum Humidity 79    
Minimum Humidity 17    
Precipitation  
Precipitation 0.00 in - - ()
Sea Level Pressure  
Sea Level Pressure 30.27 in    
Wind  
Wind Speed 11 mph (West)    
Max Wind Speed 16 mph    
Max Gust Speed 18 mph    
Visibility 10 miles    
Events      
Averages and records for this station are not official NWS values.
T = Trace of Precipitation, MM = Missing Value Source: NWS Daily Summary

Daily Weather History Graph

Daily Weather History Graph

Search for Another Location

Airport or City:

Trip Planner

Search our weather history database for the weather conditions in past years. The results will help you decide how hot, cold, wet, or windy it might be!

Date:

Astronomy

Jan. 24, 2014 Rise Set
Actual Time 7:52 AM CST 6:00 PM CST
Civil Twilight 7:24 AM CST 6:28 PM CST
Nautical Twilight 6:52 AM CST 6:59 PM CST
Astronomical Twilight 6:21 AM CST 7:30 PM CST
Moon 1:23 AM CST (1/24) 12:18 PM CST (1/24)
Length of Visible Light 11h 03m
Length of Day
10h 08m
Last Quarter, 44% of the Moon is Illuminated
Jan 24
Last Quarter
Jan 30
New
Feb 6
First Quarter
Feb 14
Full
Feb 22
Last Quarter

Hourly Weather History & Observations

Time (CST) Temp. Windchill Dew Point Humidity Pressure Visibility Wind Dir Wind Speed Gust Speed Precip Events Conditions
12:15 AM 3.2 °F -10.3 °F -2.2 °F 78% 30.59 in 10.0 mi SW 8.1 mph - N/A   Clear
12:35 AM 3.2 °F -9.1 °F -5.8 °F 66% 30.58 in 10.0 mi SW 6.9 mph - N/A   Clear
12:55 AM 6.8 °F -8.6 °F 1.4 °F 79% 30.56 in 10.0 mi SSW 11.5 mph - N/A   Clear
1:15 AM 6.8 °F -9.3 °F -2.2 °F 67% 30.54 in 10.0 mi SSW 12.7 mph - N/A   Clear
1:35 AM 6.8 °F -10.7 °F -0.4 °F 72% 30.53 in 10.0 mi SSW 15.0 mph - N/A   Clear
1:55 AM 6.8 °F -9.3 °F -0.4 °F 72% 30.52 in 10.0 mi SSW 12.7 mph - N/A   Clear
2:15 AM 6.8 °F -11.3 °F -0.4 °F 72% 30.50 in 10.0 mi SSW 16.1 mph - N/A   Clear
2:35 AM 6.8 °F -10.0 °F -2.2 °F 67% 30.50 in 10.0 mi SW 13.8 mph - N/A   Clear
2:55 AM 6.8 °F -9.3 °F -2.2 °F 67% 30.48 in 10.0 mi SW 12.7 mph - N/A   Clear
3:15 AM 6.8 °F -10.7 °F -2.2 °F 67% 30.46 in 10.0 mi SW 15.0 mph - N/A   Clear
3:35 AM 6.8 °F -10.0 °F -0.4 °F 72% 30.45 in 10.0 mi SW 13.8 mph - N/A   Clear
3:55 AM 6.8 °F -10.0 °F -0.4 °F 72% 30.42 in 10.0 mi SW 13.8 mph - N/A   Clear
4:15 AM 6.8 °F -10.0 °F -0.4 °F 72% 30.40 in 10.0 mi SW 13.8 mph - N/A   Clear
4:35 AM 6.8 °F -8.6 °F -0.4 °F 72% 30.39 in 10.0 mi SW 11.5 mph - N/A   Clear
4:55 AM 6.8 °F -7.8 °F -0.4 °F 72% 30.39 in 10.0 mi SW 10.4 mph - N/A   Clear
5:15 AM 6.8 °F -6.9 °F -0.4 °F 72% 30.38 in 10.0 mi SW 9.2 mph - N/A   Clear
5:35 AM 6.8 °F -5.9 °F -0.4 °F 72% 30.37 in 10.0 mi SW 8.1 mph - N/A   Clear
5:55 AM 5.0 °F -4.1 °F -2.2 °F 72% 30.37 in 10.0 mi WSW 4.6 mph - N/A   Clear
6:15 AM 5.0 °F -8.1 °F -4.0 °F 66% 30.35 in 10.0 mi SW 8.1 mph - N/A   Clear
6:35 AM 6.8 °F -8.6 °F 1.4 °F 79% 30.35 in 10.0 mi WSW 11.5 mph - N/A   Clear
6:55 AM 6.8 °F -8.6 °F -0.4 °F 72% 30.34 in 10.0 mi WSW 11.5 mph - N/A   Clear
7:15 AM 6.8 °F -7.8 °F -0.4 °F 72% 30.33 in 10.0 mi WSW 10.4 mph - N/A   Clear
7:35 AM 6.8 °F -7.8 °F -0.4 °F 72% 30.32 in 10.0 mi WSW 10.4 mph - N/A   Clear
7:55 AM 8.6 °F -7.0 °F 3.2 °F 79% 30.31 in 10.0 mi WSW 12.7 mph - N/A   Clear
8:15 AM 8.6 °F -5.5 °F -0.4 °F 67% 30.31 in 10.0 mi WSW 10.4 mph - N/A   Clear
8:35 AM 8.6 °F -5.5 °F 3.2 °F 79% 30.29 in 10.0 mi WSW 10.4 mph - N/A   Clear
8:55 AM 12.2 °F -2.5 °F 5.0 °F 73% 30.30 in 10.0 mi West 12.7 mph - N/A   Clear
9:15 AM 12.2 °F -3.1 °F 6.8 °F 79% 30.29 in 10.0 mi WSW 13.8 mph 18.4 mph N/A   Clear
9:35 AM 15.8 °F 0.9 °F 6.8 °F 68% 30.30 in 10.0 mi West 15.0 mph - N/A   Clear
9:55 AM 17.6 °F 4.3 °F 8.6 °F 68% 30.29 in 10.0 mi West 12.7 mph - N/A   Clear
10:15 AM 19.4 °F 7.9 °F 10.4 °F 68% 30.29 in 10.0 mi WNW 10.4 mph - N/A   Clear
10:35 AM 23.0 °F 12.4 °F 12.2 °F 63% 30.29 in 10.0 mi West 10.4 mph - N/A   Clear
10:55 AM 26.6 °F 16.2 °F 14.0 °F 59% 30.28 in 10.0 mi WSW 11.5 mph - N/A   Clear
11:15 AM 30.2 °F 21.9 °F 19.4 °F 64% 30.28 in 10.0 mi West 9.2 mph - N/A   Clear
11:35 AM 35.6 °F 27.5 °F 21.2 °F 56% 30.27 in 10.0 mi West 11.5 mph - N/A   Clear
11:55 AM 39.2 °F 31.2 °F 24.8 °F 56% 30.27 in 10.0 mi WNW 13.8 mph - N/A   Clear
12:15 PM 41.0 °F 33.5 °F 24.8 °F 53% 30.26 in 10.0 mi WNW 13.8 mph - N/A   Clear
12:35 PM 42.8 °F 36.2 °F 21.2 °F 42% 30.25 in 10.0 mi WNW 12.7 mph - N/A   Clear
12:55 PM 42.8 °F 36.6 °F 23.0 °F 46% 30.24 in 10.0 mi WNW 11.5 mph - N/A   Clear
1:15 PM 44.6 °F 38.8 °F 23.0 °F 43% 30.22 in 10.0 mi WNW 11.5 mph - N/A   Clear
1:35 PM 48.2 °F - 24.8 °F 40% 30.21 in 10.0 mi WNW 11.5 mph - N/A   Clear
1:55 PM 51.8 °F - 24.8 °F 35% 30.19 in 10.0 mi NW 12.7 mph - N/A   Clear
2:15 PM 53.6 °F - 21.2 °F 28% 30.18 in 10.0 mi NW 11.5 mph - N/A   Clear
2:35 PM 53.6 °F - 19.4 °F 26% 30.16 in 10.0 mi NW 12.7 mph - N/A   Clear
2:55 PM 55.4 °F - 15.8 °F 21% 30.16 in 10.0 mi NNW 13.8 mph 18.4 mph N/A   Clear
3:15 PM 55.4 °F - 14.0 °F 20% 30.15 in 10.0 mi NW 12.7 mph - N/A   Clear
3:35 PM 55.4 °F - 14.0 °F 20% 30.14 in 10.0 mi NW 13.8 mph - N/A   Clear
3:55 PM 55.4 °F - 14.0 °F 20% 30.14 in 10.0 mi WNW 12.7 mph - N/A   Clear
4:15 PM 55.4 °F - 14.0 °F 20% 30.14 in 10.0 mi WNW 15.0 mph - N/A   Clear
4:35 PM 55.4 °F - 12.2 °F 18% 30.14 in 10.0 mi WNW 12.7 mph - N/A   Clear
4:55 PM 55.4 °F - 10.4 °F 17% 30.13 in 10.0 mi WNW 10.4 mph - N/A   Clear
5:15 PM 53.6 °F - 10.4 °F 18% 30.13 in 10.0 mi West 5.8 mph - N/A   Clear
5:35 PM 50.0 °F - 10.4 °F 20% 30.13 in 10.0 mi West 8.1 mph - N/A   Clear
5:55 PM 44.6 °F 39.7 °F 10.4 °F 25% 30.13 in 10.0 mi West 9.2 mph - N/A   Clear
6:15 PM 39.2 °F 32.5 °F 10.4 °F 31% 30.13 in 10.0 mi WSW 10.4 mph - N/A   Clear
6:35 PM 35.6 °F 28.6 °F 8.6 °F 33% 30.13 in 10.0 mi WSW 9.2 mph - N/A   Clear
6:55 PM 33.8 °F 25.3 °F 10.4 °F 38% 30.13 in 10.0 mi WSW 11.5 mph - N/A   Clear
7:15 PM 37.4 °F 29.8 °F 14.0 °F 38% 30.12 in 10.0 mi West 11.5 mph - N/A   Clear
7:35 PM 35.6 °F 28.0 °F 12.2 °F 38% 30.12 in 10.0 mi West 10.4 mph - N/A   Clear
7:55 PM 33.8 °F 25.3 °F 12.2 °F 41% 30.12 in 10.0 mi West 11.5 mph - N/A   Clear
8:15 PM 33.8 °F 25.3 °F 14.0 °F 44% 30.12 in 10.0 mi WNW 11.5 mph - N/A   Clear
8:35 PM 37.4 °F 29.3 °F 15.8 °F 41% 30.12 in 10.0 mi West 12.7 mph - N/A   Clear
8:55 PM 35.6 °F 27.1 °F 15.8 °F 44% 30.11 in 10.0 mi West 12.7 mph - N/A   Clear
9:15 PM 35.6 °F 26.6 °F 17.6 °F 48% 30.12 in 10.0 mi West 13.8 mph - N/A   Clear
9:35 PM 37.4 °F 29.8 °F 17.6 °F 45% 30.11 in 10.0 mi West 11.5 mph - N/A   Clear
9:55 PM 35.6 °F 27.1 °F 17.6 °F 48% 30.11 in 10.0 mi West 12.7 mph - N/A   Clear
10:15 PM 37.4 °F 28.9 °F 17.6 °F 45% 30.12 in 10.0 mi West 13.8 mph - N/A   Clear
10:35 PM 37.4 °F 28.9 °F 17.6 °F 45% 30.12 in 10.0 mi West 13.8 mph - N/A   Clear
10:55 PM 37.4 °F 29.8 °F 17.6 °F 45% 30.12 in 10.0 mi West 11.5 mph - N/A   Clear
11:15 PM 35.6 °F 27.1 °F 17.6 °F 48% 30.12 in 10.0 mi West 12.7 mph - N/A   Clear
11:35 PM 35.6 °F 26.6 °F 17.6 °F 48% 30.12 in 10.0 mi West 13.8 mph - N/A   Clear
11:55 PM 35.6 °F 27.1 °F 17.6 °F 48% 30.12 in 10.0 mi West 12.7 mph - N/A   Clear